COSMOS 1275 DEB, 12662

Orbit data source: Space-Track

COSMOS 1275 DEB, 12662 is space debris in LEO originally from a launch on Thu, 04 Jun 1981 UTC launched from the Plesetsk Missile And Space Complex (PKMTR). Debris objects in space refer to the collection of defunct objects orbiting the Earth. Examples of debris include non-operational satellites, rocket bodies, and fragments generated from explosions, collisions, or faulty payload assembly.

Loading next visibility...
Identifier
12662, 1981-053S
Orbit
LEO
Country
Flag of CISCIS
Related business
Manufacturer
Unknown
Mission
Spacecraft
Bus & Motor
Unknown
Mass
Unknown
Launch date (UTC)
1981-06-04 (45 years ago)
Launch vehicle
Unknown
Launch site
Plesetsk Missile And Space Complex (PKMTR)
Object type
Payload
Rocket body
Debris
Shape & HBR
Unknown shape, 0.6 m
Radar Cross Section
Medium (>0.1 m² and <1 m²)

Expand to show TLE details & history
Last TLE update: 1 day ago

TLE from 1 day ago
0 COSMOS 1275 DEB
1 12662U 81053S   26171.42942097  .00000111  00000-0  95179-4 0  9996
2 12662  82.9560 218.9858 0022174  13.5659 357.2483 13.78196262255183
Epoch: 2026-06-20T10:18Z
TLE epoch observation values (Epoch: 2026-06-20T10:18:21.971Z)
Latitude
10.66912°
Longitude
157.07702°
Altitude
956.166 km
Speed
7.383 km/s
True Right ascension
14h 41m 15s
True Declination
10° 36' 30"
Sunlit
Object was in full shadow at epoch
Visualization orbit readout
Latitude
Unknown
Longitude
Unknown
Altitude
Unknown
Speed
Unknown
Apparent Right ascension
Unknown
Apparent Declination
Unknown
Sunlit
N/A
Visualization observer readout
Local Sidereal Time
02:46:44
Azimuth
Unknown
Elevation
Unknown
Doppler factor
Unknown
Orbital elements
Apogee altitude
983.723 km
Perigee altitude
951.147 km
Semi-major axis
7,345.572 km
Eccentricity
0.00222
Inclination
82.956°
RAAN
218.9858°
Arg. of periapsis
13.5659°
True anomaly
357.23607°
Mean anomaly
357.2483°
Eccentric anomaly
357.24219°
Mean motion
3.4475 °/min
Orbital period
104.42 mins
BSTAR
0.000095179
Loading maneuver chart data...
Computing Atmospheric mass density...

Documentation

Showing up to 5 results
|